Regional Weather Roundup
Issued by NWS

Home | Current Version | Previous Version | Graphics & Text | Print | Product List | Glossary On
Versions: 1 2 3 4 5 6 7 8 9 10 11 12 13 14 15 16 17 18 19 20 21 22 23 24 25 26 27 28 29 30 31 32 33 34 35 36 37 38 39 40 41 42 43 44 45 46 47 48 49 50
819
ASUS45 KSLC 261310
RWRUT

UTAH REGIONAL WEATHER ROUNDUP
NATIONAL WEATHER SERVICE SALT LAKE CITY UT
700 AM MDT FRI MAY 26 2017

UTZ001>011-023>025-261400-

NORTHERN UTAH

CITY           SKY/WX    TMP DP  RH WIND       PRES   REMARKS
BRIGHAM CITY   MOCLDY    51  31  46 NW17G24   29.75R
HILL AFB       MOCLDY    52  32  46 NE5       29.75R
LOGAN          MOCLDY    47  40  76 NE6       29.76R
OGDEN          CLOUDY    52  38  58 NW7       29.73R
SALT LAKE CITY CLOUDY    57  44  62 NW13      29.72R
TOOELE VALLEY  MOCLDY    54  41  62 NW13      29.76R
WENDOVER       MOCLDY    54  32  43 SW7       29.77R
HEBER CITY     CLOUDY    45  37  76 CALM      29.75S
WEST JORDAN    MOCLDY    54  43  66 NW14      29.73R

$$

UTZ011>015-024>027-261400-

CENTRAL/NORTHEAST UTAH

CITY           SKY/WX    TMP DP  RH WIND       PRES   REMARKS
PROVO AIRPORT  MOCLDY    52  42  69 E5        29.73R
MOAB/CANYONLAN MOSUNNY   57  40  52 SE5       29.78R
DELTA          CLEAR     43  36  75 SW3       29.75R
PRICE          PTCLDY    54  38  54 NE8       29.82S
ROOSEVELT      MOSUNNY   48  36  61 CALM      29.84S
VERNAL         CLOUDY    46  36  68 CALM      29.82S

$$

UTZ013>016-019>022-027-261400-

SOUTHERN UTAH

CITY           SKY/WX    TMP DP  RH WIND       PRES   REMARKS
BRYCE CANYON   CLEAR     50  22  33 S18       29.95S
CEDAR CITY     CLEAR     61  20  20 S15G28    29.79R
MILFORD        CLEAR     57  22  25 S16       29.75R
ST GEORGE      CLOUDY    70  26  19 SE10      29.72R
HANKSVILLE     PTCLDY    55  32  41 CALM      29.80R
BLANDING       CLEAR     49  33  53 NE6       30.01R

$$

REGIONAL REPORTS     COLORADO/ARIZONA

CITY           SKY/WX    TMP DP  RH WIND       PRES   REMARKS
CRAIG, CO      CLOUDY    44  37  76 NE8       29.93R
GRAND JUNCTION SUNNY     58  43  57 SE22      29.84S
RIFLE, CO      SUNNY     49  42  77 S3        29.91S
MONTROSE, CO   CLOUDY    50  40  68 SE8       29.96R
CORTEZ, CO     SUNNY     48  28  46 NE8       29.97R
COLORADO CITY    N/A     52  30  43 NE3       29.87R
PAGE, AZ       CLEAR     67  23  19 S7        29.82R
GRAND CANYON   CLEAR     39  23  52 CALM      29.98S HAZE
KINGMAN, AZ    CLEAR     61  27  27 SE10      29.80R
FLAGSTAFF, AZ  CLEAR     48  20  32 SW6       30.02R

$$

REGIONAL REPORTS    NEVADA/IDAHO/WYOMING

CITY           SKY/WX    TMP DP  RH WIND       PRES   REMARKS
LAS VEGAS, NV  CLEAR     71  25  17 S10G21    29.65R
ELY, NY        CLEAR     43  23  45 NE8       29.87R
ELKO, NV       CLEAR     47  35  63 CALM      29.86R
POCATELLO, ID  LGT RAIN  45  41  86 NE5       29.85R
BURLEY, ID     CLOUDY    43  42  97 SW8       29.85R
FORT BRIDGER,  PTSUNNY   43  34  70 NE12      29.87R
EVANSTON, WY   CLOUDY    42  32  67 NE12      29.84R
ROCK SPRINGS,  CLOUDY    38  34  85 NE10      29.87F WCI  31
KEMMERER, WY   RAIN      37  32  81 N17G23    29.87S WCI  28

$$




USA.gov is the U.S. government's official web portal to all federal, state and local government web resources and services.